Regional Weather Roundup
Issued by NWS

Home | Current Version | Previous Version | Graphics & Text | Print | Product List | Glossary On
Versions: 1 2 3 4 5 6 7 8 9 10 11 12 13 14 15 16 17 18 19 20 21 22 23 24 25 26 27 28 29 30 31 32 33 34 35 36 37 38 39 40 41 42 43 44 45 46 47 48 49 50
000
ASUS43 KLOT 270509
RWRIL

ILLINOIS REGIONAL WEATHER ROUNDUP
NATIONAL WEATHER SERVICE CHICAGO/ROMEOVILLE IL
1200 AM CDT TUE JUN 27 2017

NOTE: "FAIR" INDICATES FEW OR NO CLOUDS BELOW 12,000 FEET WITH NO
SIGNIFICANT WEATHER AND/OR OBSTRUCTIONS TO VISIBILITY.

* THESE STATIONS ARE NOT UNDER NWS QUALITY CONTROL. THEY ALSO MAY NOT
  REPORT WEATHER SUCH AS PRECIPITATION OR FOG.

ILZ001-002-007-009-015-016-024-270600-
NORTHWEST ILLINOIS

CITY           SKY/WX    TMP DP  RH WIND       PRES   REMARKS
MOLINE         CLEAR     55  47  74 CALM      30.13R
STERLING*      CLEAR     53  49  86 CALM      30.13R
SAVANNA*       CLEAR     51  49  92 CALM      30.13R
$$

ILZ003-004-008-010-011-017-018-270600-
NORTH CENTRAL ILLINOIS

CITY           SKY/WX    TMP DP  RH WIND       PRES   REMARKS
ROCKFORD       CLEAR     55  48  77 CALM      30.12S
FREEPORT*      CLEAR     49  45  85 CALM      30.14R
ROCHELLE*      CLEAR     52  46  78 CALM      30.13R
DE KALB*       CLEAR     54  45  70 W5        30.13R
PERU*          CLEAR     56  45  64 N5        30.13R
$$

ILZ005-006-012>014-019>023-270600-
NORTHEAST ILLINOIS

CITY           SKY/WX    TMP DP  RH WIND       PRES   REMARKS
CHICAGO-OHARE  CLEAR     59  44  57 NW8       30.09S
CHICAGO-MIDWAY PTCLDY    59  45  59 W5        30.10R
AURORA         CLEAR     51  46  83 W3        30.12R
LANSING*       CLEAR     57  43  59 W5        30.10S
JOLIET*        CLEAR     52  48  86 CALM      30.11S
WAUKEGAN       CLEAR     52  48  86 W3        30.09R
DUPAGE AIRPORT CLEAR     54  47  77 W5        30.10R
WHEELING       CLEAR     55  47  74 NW6       30.11R
MORRIS*        CLEAR     54  45  70 CALM      30.11R
ROMEOVILLE*    CLEAR     57  43  59 NW3       30.11R
NORTHERLY ISL    N/A     61  44  53 W6          N/A
$$

LMZ740>746-270600-
SOUTHERN LAKE MICHIGAN

STATION/POSITION SKY/WX   TEMP    WIND        PRES    VSBY  WAVE
                          AIR SEA DIR/SP/G                  HT/PER
                          (F)     (DEG/KT/KT) (MB)    (MI)  (FT/S)
SOUTHERN BUOY              59 61  350/ 17/ 19 1017.6          3/ 5
WILMETTE HARBOR            61 63  290/ 10/ 12   N/A           2/ 3
HARRISON CRIB              62     300/ 12/ 13   N/A
BURNHAM HARBOR             61                   N/A
CALUMET HARBOR             60     290/  3/  5 1018.5R
BURNS HARBOR               63     320/ 14/ 16 1019.0S
MICHIGAN CITY              62     300/ 15/ 19   N/A
MICHIGAN CITY 6N           63 65  310/ 14/ 17   N/A           4/ 5
ST. JOSEPH                 62 68  350/ 16/ 19 1018.6          4/ 4
$$

ILZ025>027-034>036-040-047-049-050-058-095>099-270600-
WEST-CENTRAL ILLINOIS

CITY           SKY/WX    TMP DP  RH WIND       PRES   REMARKS
QUINCY         PTCLDY    59  56  89 CALM      30.13R
GALESBURG*     CLEAR     52  52 100 CALM      30.15R
MACOMB*        CLEAR     53  52  94 CALM      30.16R
JACKSONVILLE*  MOCLDY    56  52  88 E3        30.13R
PITTSFIELD*    CLOUDY    59  56  89 N3        30.14R
$$

ILZ028>032-037-038-041>044-048-051>054-059>061-270600-
CENTRAL ILLINOIS

CITY           SKY/WX    TMP DP  RH WIND       PRES   REMARKS
PONTIAC        PTCLDY    57  52  84 CALM      30.13S
DECATUR        MOCLDY    59  54  83 W3        30.13R
PEORIA         CLEAR     55  53  93 CALM      30.13R
LACON*         CLEAR     51  50  95 CALM      30.12R
LINCOLN*       MOCLDY    58  56  93 CALM      30.13R
SPRINGFIELD    PTCLDY    58  56  93 S6        30.14R
TAYLORVILLE    PTCLDY    53  52  94 CALM      30.14S
$$

ILZ033-039-045-046-055>057-062-063-270600-
EAST-CENTRAL ILLINOIS

CITY           SKY/WX    TMP DP  RH WIND       PRES   REMARKS
CHAMPAIGN      CLEAR     53  49  86 W6        30.12R
RANTOUL*       CLEAR     55  53  92 NW7       30.12R
MATTOON        MOCLDY    59  52  77 CALM      30.12R
PARIS*         CLEAR     53  50  90 W5        30.13R
$$

ILZ079-100>102-270600-
SOUTHWEST ILLINOIS

CITY           SKY/WX    TMP DP  RH WIND       PRES   REMARKS
ALTON          CLEAR     55  54  95 CALM      30.13R
BELLEVILLE     CLEAR     59  55  84 CALM      30.13R
CAHOKIA*       CLEAR     60  53  77 CALM      30.12R
SPARTA*        PTCLDY    61  54  77 CALM      30.14R
$$

ILZ064>066-069>071-074>076-080>082-084>086-088>090-092>094-270600-
SOUTH-CENTRAL ILLINOIS

CITY           SKY/WX    TMP DP  RH WIND       PRES   REMARKS
CARBONDALE     CLOUDY    62  62 100 CALM      30.12S
CAIRO*         CLEAR     65  60  86 NW5       30.12R
EFFINGHAM*     CLEAR     56  55  96 CALM      30.14S
MARION         CLOUDY    63  59  88 CALM      30.13S
MT. VERNON     CLOUDY    56  55  97 CALM      30.13R
CENTRALIA*     CLOUDY    56  55  95 CALM      30.12S
SALEM*         PTCLDY    57  54  89 CALM      30.13R
METROPOLIS*    CLEAR     66  59  77 CALM      30.12S
$$

ILZ067-068-072-073-078-083-087-091-270600-
SOUTHEAST ILLINOIS

CITY           SKY/WX    TMP DP  RH WIND       PRES   REMARKS
LAWRENCEVILLE  CLEAR     58  56  93 CALM      30.13R
FLORA*         CLEAR     57  52  81 CALM      30.13R
FAIRFIELD*     CLOUDY    58  55  90 CALM      30.12S
HARRISBURG*    CLOUDY    62  56  81 CALM      30.12F
ROBINSON*      CLEAR     52  50  95 CALM      30.14R
CARMI*         CLOUDY    61  58  91 CALM      30.12S
$$

ABBREVIATIONS USED IN REMARKS
   TC - TEMPERATURE IN CELSIUS
  WCI - WIND CHILL INDEX
   HX - HEAT INDEX
  VSB - VISIBILITY
$$





USA.gov is the U.S. government's official web portal to all federal, state and local government web resources and services.